#Datum;Uhrzeit;WR;Pac;DaySum;Status;WR;Pac;DaySum;Status;Pdc1;Udc;Temp;WR;Pac;DaySum;Status;Pdc1;Udc;Temp;WR;Pac;DaySum;Status;Pdc1;Udc;Temp;WR;Pac;DaySum;Status;Pdc1;Pdc2;Udc1;Udc2;Temp;WR;Pac;DaySum;Status;Pdc1;Pdc2;Udc1;Udc2;Temp;WR;Pac;DaySum;Status;Pdc1;Udc;Temp;WR;Pac;DaySum;Status;Pdc1;Udc;Temp;WR;Pac;DaySum;Status;Pdc1;Udc;Temp
17.11.18;23:55:00;1;360;8157;0;2;0;17034;0;0;0;0;3;0;11284;0;0;0;0;4;0;12803;0;0;0;0;5;0;43237;0;0;0;0;0;0;6;0;33324;0;0;0;0;0;0;7;0;30549;0;0;0;0;8;0;29723;0;0;0;0;9;0;15942;0;0;0;0
17.11.18;23:50:00;1;364;8126;0;2;0;17034;0;0;0;0;3;0;11284;0;0;0;0;4;0;12803;0;0;0;0;5;0;43237;0;0;0;0;0;0;6;0;33324;0;0;0;0;0;0;7;0;30549;0;0;0;0;8;0;29723;0;0;0;0;9;0;15942;0;0;0;0
17.11.18;23:45:00;1;364;8096;0;2;0;17034;0;0;0;0;3;0;11284;0;0;0;0;4;0;12803;0;0;0;0;5;0;43237;0;0;0;0;0;0;6;0;33324;0;0;0;0;0;0;7;0;30549;0;0;0;0;8;0;29723;0;0;0;0;9;0;15942;0;0;0;0
17.11.18;23:40:00;1;363;8065;0;2;0;17034;0;0;0;0;3;0;11284;0;0;0;0;4;0;12803;0;0;0;0;5;0;43237;0;0;0;0;0;0;6;0;33324;0;0;0;0;0;0;7;0;30549;0;0;0;0;8;0;29723;0;0;0;0;9;0;15942;0;0;0;0
17.11.18;23:35:00;1;364;8035;0;2;0;17034;0;0;0;0;3;0;11284;0;0;0;0;4;0;12803;0;0;0;0;5;0;43237;0;0;0;0;0;0;6;0;33324;0;0;0;0;0;0;7;0;30549;0;0;0;0;8;0;29723;0;0;0;0;9;0;15942;0;0;0;0
17.11.18;23:30:00;1;364;8005;0;2;0;17034;0;0;0;0;3;0;11284;0;0;0;0;4;0;12803;0;0;0;0;5;0;43237;0;0;0;0;0;0;6;0;33324;0;0;0;0;0;0;7;0;30549;0;0;0;0;8;0;29723;0;0;0;0;9;0;15942;0;0;0;0
17.11.18;23:25:00;1;372;7974;0;2;0;17034;0;0;0;0;3;0;11284;0;0;0;0;4;0;12803;0;0;0;0;5;0;43237;0;0;0;0;0;0;6;0;33324;0;0;0;0;0;0;7;0;30549;0;0;0;0;8;0;29723;0;0;0;0;9;0;15942;0;0;0;0
17.11.18;23:20:00;1;405;7943;0;2;0;17034;0;0;0;0;3;0;11284;0;0;0;0;4;0;12803;0;0;0;0;5;0;43237;0;0;0;0;0;0;6;0;33324;0;0;0;0;0;0;7;0;30549;0;0;0;0;8;0;29723;0;0;0;0;9;0;15942;0;0;0;0
17.11.18;23:15:00;1;407;7909;0;2;0;17034;0;0;0;0;3;0;11284;0;0;0;0;4;0;12803;0;0;0;0;5;0;43237;0;0;0;0;0;0;6;0;33324;0;0;0;0;0;0;7;0;30549;0;0;0;0;8;0;29723;0;0;0;0;9;0;15942;0;0;0;0
17.11.18;23:10:00;1;411;7875;0;2;0;17034;0;0;0;0;3;0;11284;0;0;0;0;4;0;12803;0;0;0;0;5;0;43237;0;0;0;0;0;0;6;0;33324;0;0;0;0;0;0;7;0;30549;0;0;0;0;8;0;29723;0;0;0;0;9;0;15942;0;0;0;0
17.11.18;23:05:00;1;365;7841;0;2;0;17034;0;0;0;0;3;0;11284;0;0;0;0;4;0;12803;0;0;0;0;5;0;43237;0;0;0;0;0;0;6;0;33324;0;0;0;0;0;0;7;0;30549;0;0;0;0;8;0;29723;0;0;0;0;9;0;15942;0;0;0;0
17.11.18;23:00:00;1;362;7810;0;2;0;17034;0;0;0;0;3;0;11284;0;0;0;0;4;0;12803;0;0;0;0;5;0;43237;0;0;0;0;0;0;6;0;33324;0;0;0;0;0;0;7;0;30549;0;0;0;0;8;0;29723;0;0;0;0;9;0;15942;0;0;0;0
17.11.18;22:55:00;1;366;7780;0;2;0;17034;0;0;0;0;3;0;11284;0;0;0;0;4;0;12803;0;0;0;0;5;0;43237;2;0;0;0;0;0;6;0;33324;2;0;0;0;0;0;7;0;30549;0;0;0;0;8;0;29723;0;0;0;0;9;0;15942;0;0;0;0
17.11.18;22:50:00;1;410;7749;0;2;0;17034;0;0;0;0;3;0;11284;0;0;0;0;4;0;12803;0;0;0;0;5;0;43237;2;0;0;0;0;0;6;0;33324;2;0;0;0;0;0;7;0;30549;0;0;0;0;8;0;29723;0;0;0;0;9;0;15942;0;0;0;0
17.11.18;22:45:00;1;409;7714;0;2;0;17034;0;0;0;0;3;0;11284;0;0;0;0;4;0;12803;0;0;0;0;5;0;43237;2;0;0;0;0;0;6;0;33324;2;0;0;0;0;0;7;0;30549;0;0;0;0;8;0;29723;0;0;0;0;9;0;15942;0;0;0;0
17.11.18;22:40:00;1;409;7680;0;2;0;17034;0;0;0;0;3;0;11284;0;0;0;0;4;0;12803;0;0;0;0;5;0;43237;2;0;0;0;0;0;6;0;33324;2;0;0;0;0;0;7;0;30549;0;0;0;0;8;0;29723;0;0;0;0;9;0;15942;0;0;0;0
17.11.18;22:35:00;1;409;7646;0;2;0;17034;0;0;0;0;3;0;11284;0;0;0;0;4;0;12803;0;0;0;0;5;0;43237;2;0;0;0;0;0;6;0;33324;2;0;0;0;0;0;7;0;30549;0;0;0;0;8;0;29723;0;0;0;0;9;0;15942;0;0;0;0
17.11.18;22:30:00;1;467;7612;0;2;0;17034;0;0;0;0;3;0;11284;0;0;0;0;4;0;12803;0;0;0;0;5;0;43237;2;0;0;0;0;0;6;0;33324;2;0;0;0;0;0;7;0;30549;0;0;0;0;8;0;29723;0;0;0;0;9;0;15942;0;0;0;0
17.11.18;22:25:00;1;508;7573;0;2;0;17034;0;0;0;0;3;0;11284;0;0;0;0;4;0;12803;0;0;0;0;5;0;43237;2;0;0;0;0;0;6;0;33324;2;0;0;0;0;0;7;0;30549;0;0;0;0;8;0;29723;0;0;0;0;9;0;15942;0;0;0;0
17.11.18;22:20:00;1;512;7531;0;2;0;17034;0;0;0;0;3;0;11284;0;0;0;0;4;0;12803;0;0;0;0;5;0;43237;2;0;0;0;0;0;6;0;33324;2;0;0;0;0;0;7;0;30549;0;0;0;0;8;0;29723;0;0;0;0;9;0;15942;0;0;0;0
17.11.18;22:15:00;1;452;7488;0;2;0;17034;0;0;0;0;3;0;11284;0;0;0;0;4;0;12803;0;0;0;0;5;0;43237;2;0;0;0;0;0;6;0;33324;2;0;0;0;0;0;7;0;30549;0;0;0;0;8;0;29723;0;0;0;0;9;0;15942;0;0;0;0
17.11.18;22:10:00;1;438;7450;0;2;0;17034;0;0;0;0;3;0;11284;0;0;0;0;4;0;12803;0;0;0;0;5;0;43237;2;0;0;0;0;0;6;0;33324;2;0;0;0;0;0;7;0;30549;0;0;0;0;8;0;29723;0;0;0;0;9;0;15942;0;0;0;0
17.11.18;22:05:00;1;429;7414;0;2;0;17034;0;0;0;0;3;0;11284;0;0;0;0;4;0;12803;0;0;0;0;5;0;43237;2;0;0;0;0;0;6;0;33324;2;0;0;0;0;0;7;0;30549;0;0;0;0;8;0;29723;0;0;0;0;9;0;15942;0;0;0;0
17.11.18;22:00:00;1;419;7378;0;2;0;17034;0;0;0;0;3;0;11284;0;0;0;0;4;0;12803;0;0;0;0;5;0;43237;2;0;0;0;0;0;6;0;33324;2;0;0;0;0;0;7;0;30549;0;0;0;0;8;0;29723;0;0;0;0;9;0;15942;0;0;0;0
17.11.18;21:55:00;1;397;7343;0;2;0;17034;0;0;0;0;3;0;11284;0;0;0;0;4;0;12803;0;0;0;0;5;0;43237;2;0;0;0;0;0;6;0;33324;2;0;0;0;0;0;7;0;30549;0;0;0;0;8;0;29723;0;0;0;0;9;0;15942;0;0;0;0
17.11.18;21:50:00;1;362;7310;0;2;0;17034;0;0;0;0;3;0;11284;0;0;0;0;4;0;12803;0;0;0;0;5;0;43237;2;0;0;0;0;0;6;0;33324;2;0;0;0;0;0;7;0;30549;0;0;0;0;8;0;29723;0;0;0;0;9;0;15942;0;0;0;0
17.11.18;21:45:00;1;364;7280;0;2;0;17034;0;0;0;0;3;0;11284;0;0;0;0;4;0;12803;0;0;0;0;5;0;43237;2;0;0;0;0;0;6;0;33324;2;0;0;0;0;0;7;0;30549;0;0;0;0;8;0;29723;0;0;0;0;9;0;15942;0;0;0;0
17.11.18;21:40:00;1;364;7250;0;2;0;17034;0;0;0;0;3;0;11284;0;0;0;0;4;0;12803;0;0;0;0;5;0;43237;2;0;0;0;0;0;6;0;33324;2;0;0;0;0;0;7;0;30549;0;0;0;0;8;0;29723;0;0;0;0;9;0;15942;0;0;0;0
17.11.18;21:35:00;1;361;7219;0;2;0;17034;0;0;0;0;3;0;11284;0;0;0;0;4;0;12803;0;0;0;0;5;0;43237;2;0;0;0;0;0;6;0;33324;2;0;0;0;0;0;7;0;30549;0;0;0;0;8;0;29723;0;0;0;0;9;0;15942;0;0;0;0
17.11.18;21:30:00;1;382;7189;0;2;0;17034;0;0;0;0;3;0;11284;0;0;0;0;4;0;12803;0;0;0;0;5;0;43237;2;0;0;0;0;0;6;0;33324;2;0;0;0;0;0;7;0;30549;0;0;0;0;8;0;29723;0;0;0;0;9;0;15942;0;0;0;0
17.11.18;21:25:00;1;399;7157;0;2;0;17034;0;0;0;0;3;0;11284;0;0;0;0;4;0;12803;0;0;0;0;5;0;43237;2;0;0;0;0;0;6;0;33324;2;0;0;0;0;0;7;0;30549;0;0;0;0;8;0;29723;0;0;0;0;9;0;15942;0;0;0;0
17.11.18;21:20:00;1;400;7123;0;2;0;17034;0;0;0;0;3;0;11284;0;0;0;0;4;0;12803;0;0;0;0;5;0;43237;2;0;0;0;0;0;6;0;33324;2;0;0;0;0;0;7;0;30549;0;0;0;0;8;0;29723;0;0;0;0;9;0;15942;0;0;0;0
17.11.18;21:15:00;1;419;7090;0;2;0;17034;0;0;0;0;3;0;11284;0;0;0;0;4;0;12803;0;0;0;0;5;0;43237;2;0;0;0;0;0;6;0;33324;2;0;0;0;0;0;7;0;30549;0;0;0;0;8;0;29723;0;0;0;0;9;0;15942;0;0;0;0
17.11.18;21:10:00;1;391;7054;0;2;0;17034;0;0;0;0;3;0;11284;0;0;0;0;4;0;12803;0;0;0;0;5;0;43237;2;0;0;0;0;0;6;0;33324;2;0;0;0;0;0;7;0;30549;0;0;0;0;8;0;29723;0;0;0;0;9;0;15942;0;0;0;0
17.11.18;21:05:00;1;392;7022;0;2;0;17034;0;0;0;0;3;0;11284;0;0;0;0;4;0;12803;0;0;0;0;5;0;43237;2;0;0;0;0;0;6;0;33324;2;0;0;0;0;0;7;0;30549;0;0;0;0;8;0;29723;0;0;0;0;9;0;15942;0;0;0;0
17.11.18;21:00:00;1;395;6989;0;2;0;17034;0;0;0;0;3;0;11284;0;0;0;0;4;0;12803;0;0;0;0;5;0;43237;2;0;0;0;0;0;6;0;33324;2;0;0;0;0;0;7;0;30549;0;0;0;0;8;0;29723;0;0;0;0;9;0;15942;0;0;0;0
17.11.18;20:55:00;1;384;6956;0;2;0;17034;0;0;0;0;3;0;11284;0;0;0;0;4;0;12803;0;0;0;0;5;0;43237;2;0;0;0;0;0;6;0;33324;2;0;0;0;0;0;7;0;30549;0;0;0;0;8;0;29723;0;0;0;0;9;0;15942;0;0;0;0
17.11.18;20:50:00;1;386;6924;0;2;0;17034;0;0;0;0;3;0;11284;0;0;0;0;4;0;12803;0;0;0;0;5;0;43237;2;0;0;0;0;0;6;0;33324;2;0;0;0;0;0;7;0;30549;0;0;0;0;8;0;29723;0;0;0;0;9;0;15942;0;0;0;0
17.11.18;20:45:00;1;379;6892;0;2;0;17034;0;0;0;0;3;0;11284;0;0;0;0;4;0;12803;0;0;0;0;5;0;43237;2;0;0;0;0;0;6;0;33324;2;0;0;0;0;0;7;0;30549;0;0;0;0;8;0;29723;0;0;0;0;9;0;15942;0;0;0;0
17.11.18;20:40:00;1;380;6860;0;2;0;17034;0;0;0;0;3;0;11284;0;0;0;0;4;0;12803;0;0;0;0;5;0;43237;2;0;0;0;0;0;6;0;33324;2;0;0;0;0;0;7;0;30549;0;0;0;0;8;0;29723;0;0;0;0;9;0;15942;0;0;0;0
17.11.18;20:35:00;1;389;6828;0;2;0;17034;0;0;0;0;3;0;11284;0;0;0;0;4;0;12803;0;0;0;0;5;0;43237;2;0;0;0;0;0;6;0;33324;2;0;0;0;0;0;7;0;30549;0;0;0;0;8;0;29723;0;0;0;0;9;0;15942;0;0;0;0
17.11.18;20:30:00;1;482;6796;0;2;0;17034;0;0;0;0;3;0;11284;0;0;0;0;4;0;12803;0;0;0;0;5;0;43237;2;0;0;0;0;0;6;0;33324;2;0;0;0;0;0;7;0;30549;0;0;0;0;8;0;29723;0;0;0;0;9;0;15942;0;0;0;0
17.11.18;20:25:00;1;494;6755;0;2;0;17034;0;0;0;0;3;0;11284;0;0;0;0;4;0;12803;0;0;0;0;5;0;43237;2;0;0;0;0;0;6;0;33324;2;0;0;0;0;0;7;0;30549;0;0;0;0;8;0;29723;0;0;0;0;9;0;15942;0;0;0;0
17.11.18;20:20:00;1;498;6714;0;2;0;17034;0;0;0;0;3;0;11284;0;0;0;0;4;0;12803;0;0;0;0;5;0;43237;2;0;0;0;0;0;6;0;33324;2;0;0;0;0;0;7;0;30549;0;0;0;0;8;0;29723;0;0;0;0;9;0;15942;0;0;0;0
17.11.18;20:15:00;1;475;6672;0;2;0;17034;0;0;0;0;3;0;11284;0;0;0;0;4;0;12803;0;0;0;0;5;0;43237;2;0;0;0;0;0;6;0;33324;2;0;0;0;0;0;7;0;30549;0;0;0;0;8;0;29723;0;0;0;0;9;0;15942;0;0;0;0
17.11.18;20:10:00;1;456;6633;0;2;0;17034;0;0;0;0;3;0;11284;0;0;0;0;4;0;12803;0;0;0;0;5;0;43237;2;0;0;0;0;0;6;0;33324;2;0;0;0;0;0;7;0;30549;0;0;0;0;8;0;29723;0;0;0;0;9;0;15942;0;0;0;0
17.11.18;20:05:00;1;453;6595;0;2;0;17034;0;0;0;0;3;0;11284;0;0;0;0;4;0;12803;0;0;0;0;5;0;43237;2;0;0;0;0;0;6;0;33324;2;0;0;0;0;0;7;0;30549;0;0;0;0;8;0;29723;0;0;0;0;9;0;15942;0;0;0;0
17.11.18;20:00:00;1;455;6557;0;2;0;17034;0;0;0;0;3;0;11284;0;0;0;0;4;0;12803;0;0;0;0;5;0;43237;2;0;0;0;0;0;6;0;33324;2;0;0;0;0;0;7;0;30549;0;0;0;0;8;0;29723;0;0;0;0;9;0;15942;0;0;0;0
17.11.18;19:55:00;1;454;6519;0;2;0;17034;0;0;0;0;3;0;11284;0;0;0;0;4;0;12803;0;0;0;0;5;0;43237;2;0;0;0;0;0;6;0;33324;2;0;0;0;0;0;7;0;30549;0;0;0;0;8;0;29723;0;0;0;0;9;0;15942;0;0;0;0
17.11.18;19:50:00;1;425;6482;0;2;0;17034;0;0;0;0;3;0;11284;0;0;0;0;4;0;12803;0;0;0;0;5;0;43237;2;0;0;0;0;0;6;0;33324;2;0;0;0;0;0;7;0;30549;0;0;0;0;8;0;29723;0;0;0;0;9;0;15942;0;0;0;0
17.11.18;19:45:00;1;390;6447;0;2;0;17034;0;0;0;0;3;0;11284;0;0;0;0;4;0;12803;0;0;0;0;5;0;43237;2;0;0;0;0;0;6;0;33324;2;0;0;0;0;0;7;0;30549;0;0;0;0;8;0;29723;0;0;0;0;9;0;15942;0;0;0;0
17.11.18;19:40:00;1;389;6415;0;2;0;17034;0;0;0;0;3;0;11284;0;0;0;0;4;0;12803;0;0;0;0;5;0;43237;2;0;0;0;0;0;6;0;33324;2;0;0;0;0;0;7;0;30549;0;0;0;0;8;0;29723;0;0;0;0;9;0;15942;0;0;0;0
17.11.18;19:35:00;1;426;6382;0;2;0;17034;0;0;0;0;3;0;11284;0;0;0;0;4;0;12803;0;0;0;0;5;0;43237;2;0;0;0;0;0;6;0;33324;2;0;0;0;0;0;7;0;30549;0;0;0;0;8;0;29723;0;0;0;0;9;0;15942;0;0;0;0
17.11.18;19:30:00;1;428;6347;0;2;0;17034;0;0;0;0;3;0;11284;0;0;0;0;4;0;12803;0;0;0;0;5;0;43237;2;0;0;0;0;0;6;0;33324;2;0;0;0;0;0;7;0;30549;0;0;0;0;8;0;29723;0;0;0;0;9;0;15942;0;0;0;0
17.11.18;19:25:00;1;433;6311;0;2;0;17034;0;0;0;0;3;0;11284;0;0;0;0;4;0;12803;0;0;0;0;5;0;43237;2;0;0;0;0;0;6;0;33324;2;0;0;0;0;0;7;0;30549;0;0;0;0;8;0;29723;0;0;0;0;9;0;15942;0;0;0;0
17.11.18;19:20:00;1;473;6275;0;2;0;17034;0;0;0;0;3;0;11284;0;0;0;0;4;0;12803;0;0;0;0;5;0;43237;2;0;0;0;0;0;6;0;33324;2;0;0;0;0;0;7;0;30549;0;0;0;0;8;0;29723;0;0;0;0;9;0;15942;0;0;0;0
17.11.18;19:15:00;1;388;6240;0;2;0;17034;0;0;0;0;3;0;11284;0;0;0;0;4;0;12803;0;0;0;0;5;0;43237;2;0;0;0;0;0;6;0;33324;2;0;0;0;0;0;7;0;30549;0;0;0;0;8;0;29723;0;0;0;0;9;0;15942;0;0;0;0
17.11.18;19:10:00;1;393;6207;0;2;0;17034;0;0;0;0;3;0;11284;0;0;0;0;4;0;12803;0;0;0;0;5;0;43237;2;0;0;0;0;0;6;0;33324;2;0;0;0;0;0;7;0;30549;0;0;0;0;8;0;29723;0;0;0;0;9;0;15942;0;0;0;0
17.11.18;19:05:00;1;397;6175;0;2;0;17034;0;0;0;0;3;0;11284;0;0;0;0;4;0;12803;0;0;0;0;5;0;43237;2;0;0;0;0;0;6;0;33324;2;0;0;0;0;0;7;0;30549;0;0;0;0;8;0;29723;0;0;0;0;9;0;15942;0;0;0;0
17.11.18;19:00:00;1;2019;6138;0;2;0;17034;0;0;0;0;3;0;11284;0;0;0;0;4;0;12803;0;0;0;0;5;0;43237;2;0;0;0;0;0;6;0;33324;2;0;0;0;0;0;7;0;30549;0;0;0;0;8;0;29723;0;0;0;0;9;0;15942;0;0;0;0
17.11.18;18:55:00;1;413;5984;0;2;0;17034;0;0;0;0;3;0;11284;0;0;0;0;4;0;12803;0;0;0;0;5;0;43237;2;0;0;0;0;0;6;0;33324;2;0;0;0;0;0;7;0;30549;0;0;0;0;8;0;29723;0;0;0;0;9;0;15942;0;0;0;0
17.11.18;18:50:00;1;414;5949;0;2;0;17034;0;0;0;0;3;0;11284;0;0;0;0;4;0;12803;0;0;0;0;5;0;43237;2;0;0;0;0;0;6;0;33324;2;0;0;0;0;0;7;0;30549;0;0;0;0;8;0;29723;0;0;0;0;9;0;15942;0;0;0;0
17.11.18;18:45:00;1;410;5915;0;2;0;17034;0;0;0;0;3;0;11284;0;0;0;0;4;0;12803;0;0;0;0;5;0;43237;2;0;0;0;0;0;6;0;33324;2;0;0;0;0;0;7;0;30549;0;0;0;0;8;0;29723;0;0;0;0;9;0;15942;0;0;0;0
17.11.18;18:40:00;1;423;5880;0;2;0;17034;0;0;0;0;3;0;11284;0;0;0;0;4;0;12803;0;0;0;0;5;0;43237;2;0;0;0;0;0;6;0;33324;2;0;0;0;0;0;7;0;30549;0;0;0;0;8;0;29723;0;0;0;0;9;0;15942;0;0;0;0
17.11.18;18:35:00;1;471;5845;0;2;0;17034;0;0;0;0;3;0;11284;0;0;0;0;4;0;12803;0;0;0;0;5;0;43237;2;0;0;0;0;0;6;0;33324;2;0;0;0;0;0;7;0;30549;0;0;0;0;8;0;29723;0;0;0;0;9;0;15942;0;0;0;0
17.11.18;18:30:00;1;523;5804;0;2;0;17034;0;0;0;0;3;0;11284;0;0;0;0;4;0;12803;0;0;0;0;5;0;43237;2;0;0;0;0;0;6;0;33324;2;0;0;0;0;0;7;0;30549;0;0;0;0;8;0;29723;0;0;0;0;9;0;15942;0;0;0;0
17.11.18;18:25:00;1;504;5762;0;2;0;17034;0;0;0;0;3;0;11284;0;0;0;0;4;0;12803;0;0;0;0;5;0;43237;2;0;0;0;0;0;6;0;33324;2;0;0;0;0;0;7;0;30549;0;0;0;0;8;0;29723;0;0;0;0;9;0;15942;0;0;0;0
17.11.18;18:20:00;1;477;5719;0;2;0;17034;0;0;0;0;3;0;11284;0;0;0;0;4;0;12803;0;0;0;0;5;0;43237;2;0;0;0;0;0;6;0;33324;2;0;0;0;0;0;7;0;30549;0;0;0;0;8;0;29723;0;0;0;0;9;0;15942;0;0;0;0
17.11.18;18:15:00;1;479;5679;0;2;0;17034;0;0;0;0;3;0;11284;0;0;0;0;4;0;12803;0;0;0;0;5;0;43237;2;0;0;0;0;0;6;0;33324;2;0;0;0;0;0;7;0;30549;0;0;0;0;8;0;29723;0;0;0;0;9;0;15942;0;0;0;0
17.11.18;18:10:00;1;477;5639;0;2;0;17034;0;0;0;0;3;0;11284;0;0;0;0;4;0;12803;0;0;0;0;5;0;43237;2;0;0;0;0;0;6;0;33324;2;0;0;0;0;0;7;0;30549;0;0;0;0;8;0;29723;0;0;0;0;9;0;15942;0;0;0;0
17.11.18;18:05:00;1;477;5600;0;2;0;17034;0;0;0;0;3;0;11284;0;0;0;0;4;0;12803;0;0;0;0;5;0;43237;2;0;0;0;0;0;6;0;33324;2;0;0;0;0;0;7;0;30549;0;0;0;0;8;0;29723;0;0;0;0;9;0;15942;0;0;0;0
17.11.18;18:00:00;1;506;5560;0;2;0;17034;0;0;0;0;3;0;11284;0;0;0;0;4;0;12803;0;0;0;0;5;0;43237;2;0;0;0;0;0;6;0;33324;2;0;0;0;0;0;7;0;30549;0;0;0;0;8;0;29723;0;0;0;0;9;0;15942;0;0;0;0
17.11.18;17:55:00;1;414;5520;0;2;0;17034;0;0;0;0;3;0;11284;0;0;0;0;4;0;12803;0;0;0;0;5;0;43237;2;0;0;0;0;0;6;0;33324;2;0;0;0;0;0;7;0;30549;0;0;0;0;8;0;29723;0;0;0;0;9;0;15942;0;0;0;0
17.11.18;17:50:00;1;404;5486;0;2;0;17034;0;0;0;0;3;0;11284;0;0;0;0;4;0;12803;0;0;0;0;5;0;43237;2;0;0;0;0;0;6;0;33324;2;0;0;0;0;0;7;0;30549;0;0;0;0;8;0;29723;0;0;0;0;9;0;15942;0;0;0;0
17.11.18;17:45:00;1;352;5452;0;2;0;17034;0;0;0;0;3;0;11284;0;0;0;0;4;0;12803;0;0;0;0;5;0;43237;2;0;0;0;0;0;6;0;33324;2;0;0;0;0;0;7;0;30549;0;0;0;0;8;0;29723;0;0;0;0;9;0;15942;0;0;0;0
17.11.18;17:40:00;1;409;5423;0;2;0;17034;0;0;0;0;3;0;11284;0;0;0;0;4;0;12803;0;0;0;0;5;0;43237;2;0;0;0;0;0;6;0;33324;2;0;0;0;0;0;7;0;30549;0;0;0;0;8;0;29723;0;0;0;0;9;0;15942;0;0;0;0
17.11.18;17:35:00;1;599;5388;0;2;0;17034;0;0;0;0;3;0;11284;0;0;0;0;4;0;12803;0;0;0;0;5;0;43237;2;0;0;0;0;0;6;0;33324;2;0;0;0;0;0;7;0;30549;0;0;0;0;8;0;29723;0;0;0;0;9;0;15942;0;0;0;0
17.11.18;17:30:00;1;685;5338;0;2;0;17034;0;0;0;0;3;0;11284;0;0;0;0;4;0;12803;0;0;0;0;5;0;43237;2;0;0;0;0;0;6;0;33324;2;0;0;0;0;0;7;0;30549;0;0;0;0;8;0;29723;0;0;0;0;9;0;15942;0;0;0;0
17.11.18;17:25:00;1;653;5270;0;2;0;17034;0;0;0;0;3;0;11284;0;0;0;0;4;0;12803;0;0;0;0;5;0;43237;2;0;0;0;0;0;6;0;33324;2;0;0;0;0;0;7;0;30549;0;0;0;0;8;0;29723;0;0;0;0;9;0;15942;0;0;0;0
17.11.18;17:20:00;1;480;5218;0;2;0;17034;0;0;0;0;3;0;11284;0;0;0;0;4;0;12803;0;0;0;0;5;0;43237;2;0;0;0;0;0;6;0;33324;2;0;0;0;0;0;7;0;30549;0;0;0;0;8;0;29723;0;0;0;0;9;0;15942;0;0;0;0
17.11.18;17:15:00;1;395;5189;0;2;0;17034;0;0;0;0;3;0;11284;0;0;0;0;4;0;12803;0;0;0;0;5;0;43237;2;0;0;0;0;0;6;0;33324;2;0;0;0;0;0;7;0;30549;0;0;0;0;8;0;29723;0;0;0;0;9;0;15942;0;0;0;0
17.11.18;17:10:00;1;681;5158;0;2;0;17034;0;0;0;0;3;0;11284;0;0;0;0;4;0;12803;0;0;0;0;5;0;43237;2;0;0;0;0;0;6;0;33324;2;0;0;0;0;0;7;0;30549;0;0;0;0;8;0;29723;0;0;0;0;9;0;15942;0;0;0;0
17.11.18;17:05:00;1;482;5101;0;2;0;17034;0;0;0;0;3;0;11284;0;0;0;0;4;0;12803;0;0;0;0;5;0;43237;2;0;0;0;0;0;6;0;33324;2;0;0;0;0;0;7;0;30549;0;0;0;0;8;0;29723;0;0;0;0;9;0;15942;0;0;0;0
17.11.18;17:00:00;1;711;5069;0;2;0;17034;0;0;0;0;3;0;11284;0;0;0;0;4;0;12803;0;0;0;0;5;0;43237;2;0;0;0;0;0;6;0;33324;2;0;0;0;0;0;7;0;30549;0;0;0;0;8;0;29723;0;0;0;0;9;0;15942;0;0;0;0
17.11.18;16:55:00;1;910;5010;0;2;0;17034;0;0;85;5;3;0;11284;0;0;229;15;4;0;12803;0;0;0;0;5;0;43237;2;0;0;0;0;0;6;0;33324;2;0;0;0;0;0;7;0;30549;0;0;0;0;8;0;29723;0;0;0;0;9;0;15942;0;0;0;0
17.11.18;16:50:00;1;585;4934;0;2;0;17034;6;0;293;17;3;0;11284;6;0;328;19;4;0;12803;0;0;27;6;5;0;43237;2;0;0;0;0;0;6;0;33324;2;0;0;0;0;0;7;0;30549;0;0;0;0;8;0;29723;0;0;0;0;9;0;15942;0;0;0;0
17.11.18;16:45:00;1;339;4886;0;2;0;17034;6;0;330;18;3;0;11284;6;1;384;19;4;0;12803;2;0;87;14;5;0;43237;2;0;0;68;68;9;6;0;33324;2;2;0;29;41;6;7;0;30549;0;0;0;0;8;0;29723;0;0;0;0;9;0;15942;0;0;0;0
17.11.18;16:40:00;1;362;4857;0;2;0;17034;6;0;366;18;3;0;11284;6;4;414;20;4;0;12803;1;0;133;15;5;0;43237;1;0;0;382;407;28;6;0;33324;23;3;4;452;225;25;7;0;30549;6;0;288;22;8;0;29723;6;0;288;21;9;0;15942;6;0;231;12
17.11.18;16:35:00;1;407;4826;0;2;0;17034;6;0;387;19;3;0;11284;6;2;464;20;4;0;12803;1;0;174;15;5;0;43237;23;0;0;411;549;28;6;0;33324;23;5;3;332;404;26;7;0;30549;0;0;225;13;8;0;29723;6;0;362;21;9;0;15942;6;0;373;16
17.11.18;16:30:00;1;448;4789;0;2;0;17034;6;0;404;19;3;0;11284;6;3;488;21;4;0;12803;1;0;200;16;5;0;43237;1;0;0;427;673;29;6;0;33324;23;9;0;345;576;26;7;0;30549;6;1;413;23;8;0;29723;6;0;415;22;9;0;15942;6;0;429;17
17.11.18;16:25:00;1;449;4752;0;2;0;17034;6;0;417;20;3;0;11284;6;0;531;21;4;0;12803;3;0;219;16;5;59;43237;1;0;12;389;620;30;6;0;33324;8;3;0;431;589;27;7;0;30549;6;0;451;23;8;0;29723;6;4;426;22;9;1;15942;6;1;482;17
17.11.18;16:20:00;1;446;4714;0;2;10;17034;4;23;401;21;3;4;11284;4;15;487;22;4;0;12803;3;0;207;17;5;95;43231;4;16;19;378;602;30;6;30;33324;1;13;6;518;367;28;7;7;30549;3;14;444;24;8;0;29723;6;5;269;13;9;0;15941;0;0;326;10
17.11.18;16:15:00;1;537;4679;0;2;48;17034;4;81;359;22;3;5;11284;6;11;527;22;4;4;12803;3;4;199;17;5;121;43223;4;33;31;378;602;30;6;64;33321;4;51;22;451;213;29;7;14;30549;6;23;445;25;8;2;29723;6;8;377;19;9;1;15941;3;11;496;18
17.11.18;16:10:00;1;2439;4585;0;2;71;17029;4;102;355;23;3;6;11283;6;14;533;22;4;19;12803;3;19;198;17;5;155;43212;4;48;50;378;602;30;6;75;33316;4;47;23;451;213;29;7;51;30548;4;76;353;25;8;30;29723;0;66;331;19;9;2;15941;6;8;536;18
17.11.18;16:05:00;1;941;4379;0;2;173;17024;4;210;383;24;3;41;11283;6;64;503;23;4;32;12801;3;33;198;18;5;188;43199;4;69;63;378;602;31;6;130;33309;4;64;57;451;310;29;7;77;30543;4;118;442;26;8;60;29721;4;96;434;25;9;5;15941;6;10;546;19
17.11.18;16:00:00;1;530;4306;0;2;598;17009;4;654;398;25;3;301;11279;4;344;435;24;4;250;12798;5;261;202;18;5;370;43183;4;150;163;385;590;31;6;371;33297;4;178;208;559;551;29;7;164;30537;4;204;443;26;8;99;29715;4;137;417;25;9;8;15941;6;12;435;15
17.11.18;15:55:00;1;483;4262;0;2;763;16961;4;824;393;26;3;410;11256;4;456;437;25;4;297;12779;5;309;200;18;5;701;43150;4;326;289;426;663;31;6;550;33266;4;258;264;596;570;29;7;270;30524;4;305;442;27;8;137;29707;4;171;438;26;9;10;15940;6;14;558;20
17.11.18;15:50:00;1;281;4224;0;2;924;16897;4;989;392;27;3;491;11222;4;540;442;25;4;304;12754;5;316;202;18;5;916;43091;4;445;379;422;693;31;6;701;33219;4;348;355;603;576;29;7;729;30501;4;781;445;27;8;331;29696;4;371;391;26;9;0;15939;0;0;358;12
17.11.18;15:45:00;1;247;4200;0;2;1061;16821;4;1131;394;28;3;571;11182;4;622;447;26;4;337;12729;5;351;201;19;5;1075;43014;4;541;456;433;683;32;6;852;33160;4;480;487;603;578;30;7;436;30445;4;464;191;11;8;533;29669;4;573;386;27;9;76;15939;4;104;497;22
17.11.18;15:40:00;1;250;4179;0;2;1210;16733;4;1285;397;29;3;650;11134;4;706;449;26;4;388;12701;5;404;199;19;5;1309;42921;4;658;549;430;692;32;6;1001;33089;4;514;508;606;585;30;7;1468;30361;4;1556;483;28;8;355;29626;4;377;188;14;9;88;15933;4;118;488;22
17.11.18;15:35:00;1;254;4158;0;2;1314;16633;4;1396;401;29;3;713;11080;4;769;446;27;4;369;12669;5;384;199;19;5;1501;42810;4;760;635;436;690;32;6;1154;33005;4;594;600;612;580;30;7;1679;30238;4;1770;491;29;8;734;29546;0;779;336;23;9;100;15926;4;134;497;23
17.11.18;15:30:00;1;219;4136;0;2;1436;16523;4;1522;396;30;3;772;11021;4;832;449;27;4;370;12638;5;385;199;19;5;1696;42684;4;862;729;434;688;32;6;1298;32908;4;654;654;602;574;30;7;1385;30100;4;1459;440;29;8;1083;29491;4;1144;412;29;9;98;15918;4;130;363;24
17.11.18;15:25:00;1;208;4118;0;2;1544;16404;4;1633;401;31;3;836;10957;4;899;451;27;4;393;12608;5;409;211;20;5;1925;42542;4;972;819;432;705;33;6;1452;32800;4;752;742;608;582;30;7;1680;29981;4;1777;494;30;8;1245;29402;4;1318;457;30;9;147;15910;4;162;213;15
17.11.18;15:20:00;1;208;4101;0;2;1699;16276;4;1802;401;32;3;932;10887;4;997;444;28;4;422;12575;5;439;206;20;5;2153;42382;4;1112;942;430;703;33;6;1650;32678;4;833;818;609;585;30;7;2086;29842;4;2194;513;31;8;1929;29298;4;2033;476;30;9;186;15892;4;200;141;10
17.11.18;15:15:00;1;208;4083;0;2;1821;16135;4;1917;395;32;3;1020;10810;4;1085;434;28;4;453;12540;5;472;203;20;5;2384;42201;4;1238;1029;433;708;33;6;1822;32539;4;973;947;611;586;31;7;2409;29669;4;2526;483;31;8;2500;29142;4;2622;478;31;9;803;15852;4;854;380;27
17.11.18;15:10:00;1;230;4066;0;2;1933;15983;4;2041;397;33;3;1086;10725;4;1155;434;29;4;495;12502;5;515;230;21;5;2618;42000;4;1376;1132;437;706;34;6;2004;32386;4;1045;1026;608;591;31;7;2839;29469;4;2981;493;32;8;2754;28938;4;2887;483;31;9;853;15785;4;904;320;22
17.11.18;15:05:00;1;225;4047;0;2;2005;15822;4;2115;400;34;3;1128;10635;4;1200;443;29;4;515;12461;5;536;222;21;5;2805;41781;4;1477;1218;439;705;34;6;2142;32219;4;1088;1071;610;587;31;7;2374;29231;4;2493;390;25;8;2335;28649;0;2455;392;25;9;1247;15696;4;1322;451;29
17.11.18;15:00:00;1;232;4028;0;2;2113;15655;4;2230;395;35;3;1189;10541;4;1261;440;30;4;566;12418;5;589;225;21;5;3020;41546;4;1609;1316;438;708;34;6;2309;32039;4;1170;1144;611;587;31;7;1532;28984;4;1610;251;16;8;3052;28465;4;3197;489;32;9;1467;15592;4;1554;485;30
17.11.18;14:55:00;1;238;4008;0;2;2233;15479;4;2352;398;35;3;1258;10442;4;1331;435;30;4;603;12371;5;628;227;22;5;3261;41293;4;1735;1429;435;697;34;6;2500;31844;4;1261;1252;610;588;31;7;1963;28730;4;2056;295;19;8;3219;28211;4;3370;486;33;9;1608;15469;4;1705;496;31
17.11.18;14:50:00;1;300;3988;0;2;2352;15293;4;2482;413;36;3;1301;10337;4;1375;436;31;4;642;12321;5;669;224;22;5;3474;41019;4;1846;1527;435;705;35;6;2653;31635;4;1376;1342;611;592;32;7;2296;28362;0;2413;326;22;8;2239;27941;4;2344;325;22;9;1742;15336;4;1841;520;32
17.11.18;14:45:00;1;626;3959;0;2;2522;15098;4;2662;414;37;3;1404;10229;4;1483;461;31;4;692;12268;5;721;223;23;5;3671;40728;4;1968;1615;435;703;35;6;2809;31413;4;1446;1410;609;590;32;7;3557;28171;4;3730;487;34;8;3489;27661;4;3651;481;33;9;735;15190;4;780;212;12
17.11.18;14:40:00;1;321;3914;0;2;2618;14887;4;2761;416;37;3;1543;10112;4;1633;490;32;4;728;12210;5;758;226;23;5;3892;40421;4;2076;1720;436;702;35;6;2977;31178;4;1539;1505;610;588;32;7;3089;27816;0;3244;412;28;8;3622;27375;4;3804;486;34;9;1965;15039;4;2086;542;33
17.11.18;14:35:00;1;828;3882;0;2;2692;14670;4;2839;417;38;3;1654;9983;4;1751;505;32;4;772;12149;5;804;223;23;5;4098;40095;4;2197;1806;437;703;35;6;3139;30928;4;1626;1590;611;590;32;7;3822;27568;4;4007;494;34;8;3758;27069;4;3937;484;34;9;2037;14872;4;2163;537;33
17.11.18;14:30:00;1;446;3849;0;2;2743;14445;4;2898;411;38;3;1746;9845;4;1849;521;33;4;815;12085;5;849;233;24;5;4268;39753;4;2294;1892;434;703;36;6;3269;30666;4;1679;1642;611;592;32;7;3917;27249;4;4105;486;34;8;3841;26760;4;4021;479;34;9;1251;14704;4;1322;321;20
17.11.18;14:25:00;1;324;3812;0;2;2814;14216;4;2970;409;38;3;1820;9700;4;1924;520;33;4;884;12017;5;921;242;24;5;4454;39395;4;2405;1968;436;698;36;6;3412;30393;4;1768;1718;608;588;32;7;4021;26926;4;4217;485;35;8;3939;26441;4;4127;478;34;9;2154;14531;4;2281;536;34
17.11.18;14:20:00;1;392;3787;0;2;2873;13982;4;3033;414;39;3;1852;9549;4;1964;523;33;4;920;11944;5;958;241;25;5;4629;39022;4;2505;2050;435;697;36;6;3537;30108;4;1815;1767;604;587;32;7;4121;26588;4;4325;483;35;8;2686;26107;4;2812;320;23;9;2202;14348;4;2332;532;34
17.11.18;14:15:00;1;333;3754;0;2;2928;13743;4;3087;408;39;3;1881;9394;4;1994;526;33;4;944;11867;5;983;241;25;5;4790;38636;4;2579;2129;434;703;36;6;3659;29813;4;1884;1843;613;591;33;7;4197;26244;4;4407;482;35;8;4125;25774;4;4323;481;35;9;898;14166;4;950;214;14